Theta_e
317 315 312 311 310 308 307 307 309 311 309 308 307 306 304 303 304 303 304 304 303 302
311 310 308 307 308 308 308 311 310 307 304 303 303 302 301 300 301 301 302 302 302 301
308 308 308 308 307 307 308 308 306 303 302 301 301 300 299 299 301 301 301 302 301 300
307 307 307 306 305 305 305 306 305 302 301 301 300 299 298 299 301 301 300 301 301 302
305 304 304 304 304 304 303 304 302 302 301 301 300 298 298 298 299 299 300 301 301 301
303 303 302 302 302 303 302 301 300 300 300 300 300 299 298 298 298 298 299 300 300 300
302 302 301 301 301 302 302 300 300 300 301 300 300 299 299 298 297 297 299 300 300 300
302 302 302 301 301 301 302 301 302 301 300 299 299 299 298 297 296 296 297 298 300 301
302 301 300 300 300 299 299 299 300 299 297 295 299 298 300 298 295 296 295 295 297 299
300 300 299 299 299 297 296 296 297 295 295 294 295 297 297 300 295 295 295 295 298 300
300 299 298 297 296 296 295 295 295 294 293 293 295 296 296 298 295 295 296 300 301 301
299 297 297 296 295 295 295 296 296 295 294 293 292 295 295 295 295 296 295 299 302 301
299 298 296 295 295 294 295 296 298 296 295 296 292 295 294 294 293 293 294 296 297 300
297 297 296 295 294 293 293 292 292 292 292 293 293 292 294 293 291 291 292 294 296 297
Wind_Speed
13 9 7 8 5 5 5 4 5 9 9 10 8 6 6 4 4 5 5 7 6 4
11 10 8 6 6 6 5 7 9 9 9 8 8 6 6 4 5 5 5 6 5 2
9 9 9 8 8 7 7 7 8 9 8 7 6 6 6 5 5 6 4 3 5 4
10 10 9 8 6 6 7 7 8 7 6 6 6 6 6 5 6 5 4 4 5 6
9 8 8 7 7 6 7 6 6 5 6 6 6 6 7 6 4 4 6 6 6 7
8 8 7 7 6 6 7 6 6 6 7 6 6 6 5 5 5 5 5 6 6 6
7 6 6 6 6 7 6 6 6 5 5 5 5 5 5 5 5 5 6 6 6 6
6 6 7 6 6 5 5 4 4 5 6 6 6 7 7 6 5 6 6 6 6 6
6 6 6 5 5 6 5 6 6 7 7 7 6 15 14 8 5 5 5 6 7 7
6 6 5 4 6 6 5 5 6 6 7 6 7 16 14 11 4 5 5 6 6 7
6 6 5 5 4 5 3 5 5 7 6 6 7 13 13 9 5 6 6 6 5 8
6 7 5 6 5 5 5 6 6 5 6 6 5 13 15 10 6 6 6 6 7 6
6 6 7 5 7 5 5 5 5 6 6 8 5 10 13 11 4 5 5 6 6 10
6 7 6 6 5 4 5 5 6 6 5 5 6 7 12 11 3 3 4 5 6 7
Wind_Direction
74 82 81 90 94 91 87 81 62 67 64 57 52 47 38 39 32 29 36 39 33 19
82 90 91 82 70 67 61 71 68 69 66 51 46 42 41 45 34 33 27 28 21 8
85 75 72 67 62 58 62 78 78 67 60 52 44 38 40 34 21 38 11 4 3 358
76 72 67 66 58 61 64 71 72 70 69 58 47 31 39 30 22 19 355 352 3 353
81 77 75 67 58 57 69 76 88 81 71 57 44 31 32 20 356 10 7 352 355 349
82 82 81 79 71 74 87 88 71 64 57 48 38 22 6 8 359 1 354 352 350 334
97 98 89 80 72 69 72 78 75 71 72 49 35 5 352 1 5 8 8 356 346 342
87 80 75 68 74 82 88 90 84 73 62 38 28 5 358 9 14 17 14 4 4 353
99 94 98 88 86 83 76 67 72 68 66 38 23 2 12 34 37 19 19 9 349 331
109 100 95 99 84 79 74 78 80 80 65 35 21 8 8 17 10 37 24 12 355 354
115 105 94 85 83 74 66 75 93 80 60 46 25 12 9 8 12 20 20 360 340 2
114 102 88 65 49 40 43 51 71 91 58 43 17 17 17 14 8 5 1 346 348 352
92 90 75 68 58 47 59 72 87 69 41 29 17 20 23 18 357 358 354 344 339 341
83 83 76 68 66 74 68 71 63 63 31 10 10 360 14 16 9 359 346 351 346 339